Simultaneous Nadir Overpasses (SNOs) Predictions

Prediction of SNOs between GOES-15 and NOAA-19 Satellite Orbit:

Table of predicted SNOs for the next 14.0 days since TLE Epoch: 3/28/2025
Index Date Time (GOES-15) GOES-15 Lat,Lon NOAA-19 Lat,Lon Distance(km) Time Diff (sec)
1 03/29/2025 05:47:55 -0.09, 61.30 0.58, 58.41 330.39 80
2 03/30/2025 05:37:59 -0.09, 61.30 -0.11, 61.47 18.54 80
3 03/31/2025 05:25:24 -0.09, 61.31 -0.80, 64.53 366.99 80
4 04/01/2025 17:56:45 0.11, 61.26 -0.87, 56.98 487.99 80
5 04/02/2025 17:44:10 0.11, 61.27 -0.19, 60.04 140.19 80
6 04/03/2025 17:28:55 0.11, 61.28 0.56, 63.09 207.57 80
7 04/06/2025 05:47:33 -0.13, 61.36 0.51, 58.65 309.09 80
8 04/07/2025 05:37:37 -0.13, 61.37 -0.21, 61.71 39.01 80
9 04/08/2025 05:25:02 -0.13, 61.37 -0.93, 64.76 387.22 80
10 04/09/2025 17:56:23 0.13, 61.33 -0.83, 57.23 468.21 80
11 04/10/2025 17:43:48 0.13, 61.34 -0.11, 60.29 120.23 80
12 04/11/2025 17:28:32 0.13, 61.35 0.60, 63.34 227.72 80
